Wind_Speed
52 48 44 38 33 39 39 37 33 31 27 25 22 19 16 14 13 11 11 10 9 7
50 49 42 38 32 37 40 39 35 31 27 24 22 19 17 14 12 12 11 10 8 7
50 50 41 37 35 40 39 38 34 30 27 26 23 20 17 15 14 12 11 11 9 8
51 46 42 37 35 34 38 37 33 30 28 26 23 21 19 16 14 13 12 11 10 10
48 44 41 37 37 38 40 37 31 29 28 26 24 20 18 17 16 14 13 12 12 11
46 40 34 39 36 39 42 36 33 31 28 28 24 23 20 18 16 15 14 14 13 12
46 37 31 37 38 42 40 39 36 33 31 28 26 23 21 20 19 18 17 16 15 13
43 41 38 35 41 40 41 41 37 36 32 29 27 26 22 22 20 19 19 18 17 15
51 48 38 38 41 43 46 44 40 37 33 32 30 24 24 21 21 20 19 18 17 16
42 40 41 39 43 45 48 45 43 38 35 34 30 26 26 24 22 21 21 20 18 16
44 44 41 42 46 49 50 49 47 42 39 35 30 28 27 25 25 24 22 20 19 16
43 44 44 48 51 52 52 52 48 43 42 38 35 31 29 27 26 25 23 21 20 17
39 41 45 47 53 53 52 53 49 45 42 37 33 32 29 28 28 27 25 23 20 18
30 35 39 45 48 50 50 51 45 44 38 33 32 31 30 29 29 27 27 23 21 19
Wind_Direction
216 214 212 215 211 211 211 208 206 204 196 198 195 194 192 189 186 185 186 180 176 177
213 217 219 216 212 211 211 208 205 200 197 198 197 193 192 189 186 185 179 168 172 177
212 216 222 221 211 212 211 207 203 200 197 199 198 193 193 191 188 179 177 170 174 179
212 211 218 221 216 214 216 206 203 203 201 199 199 196 190 192 187 179 180 169 178 179
211 210 216 217 218 217 212 207 204 204 202 200 199 198 197 193 185 181 176 171 177 181
209 211 220 222 216 218 211 211 203 204 205 203 200 200 197 193 185 181 175 174 177 180
209 215 233 229 211 212 214 213 208 205 205 203 202 196 198 196 187 180 180 178 181 179
211 212 220 222 214 211 212 210 210 207 202 200 200 197 198 196 190 183 182 181 181 181
215 221 224 219 211 214 211 209 210 206 203 199 199 191 197 196 190 185 184 183 184 182
222 226 233 224 213 215 212 207 209 206 202 200 193 191 197 190 187 186 183 180 184 186
228 230 233 225 214 213 207 204 205 202 200 196 191 200 195 191 184 184 183 180 184 188
234 231 229 222 215 213 205 200 201 203 198 193 195 195 195 189 184 186 183 181 183 187
239 232 228 222 215 212 207 201 198 199 200 199 188 196 191 189 187 187 186 183 186 191
243 237 231 221 214 207 201 199 196 202 199 191 194 194 189 190 190 191 185 185 186 190
Height
1435 1442 1444 1446 1448 1459 1467 1472 1477 1481 1482 1488 1491 1495 1498 1500 1501 1503 1505 1505 1506 1509
1428 1439 1441 1444 1446 1452 1460 1466 1471 1474 1478 1484 1487 1489 1492 1496 1499 1502 1503 1501 1504 1507
1421 1430 1437 1439 1441 1446 1453 1460 1465 1470 1473 1480 1485 1485 1489 1491 1494 1497 1500 1499 1502 1505
1413 1421 1430 1435 1438 1443 1454 1458 1462 1467 1472 1477 1482 1483 1481 1488 1491 1492 1497 1494 1501 1503
1409 1416 1421 1427 1433 1443 1448 1456 1457 1464 1469 1474 1478 1481 1484 1483 1485 1488 1490 1492 1499 1503
1405 1410 1417 1420 1427 1438 1449 1452 1449 1459 1465 1470 1472 1477 1481 1481 1481 1485 1488 1491 1495 1501
1399 1405 1411 1416 1423 1434 1441 1444 1452 1453 1460 1464 1470 1471 1478 1479 1478 1478 1485 1486 1493 1497
1395 1399 1401 1408 1417 1425 1433 1440 1443 1451 1453 1458 1464 1468 1471 1476 1478 1476 1481 1485 1489 1492
1383 1390 1397 1401 1408 1416 1425 1431 1439 1445 1446 1451 1459 1461 1468 1471 1472 1476 1479 1483 1488 1490
1378 1386 1393 1395 1401 1406 1412 1425 1433 1436 1442 1450 1450 1456 1461 1465 1467 1472 1477 1478 1485 1491
1370 1375 1385 1391 1395 1399 1404 1413 1424 1429 1437 1440 1443 1452 1455 1460 1464 1471 1474 1475 1482 1490
1363 1365 1373 1383 1388 1394 1395 1403 1416 1428 1432 1431 1435 1442 1449 1455 1462 1469 1471 1475 1478 1484
1360 1359 1367 1373 1380 1386 1391 1400 1406 1421 1427 1424 1430 1436 1445 1452 1456 1463 1468 1471 1476 1481
1351 1356 1363 1369 1373 1378 1386 1399 1409 1417 1417 1422 1431 1434 1441 1448 1453 1458 1463 1468 1473 1479